Regional Weather Roundup
Issued by NWS

Home | Current Version | Previous Version | Text Only | Print | Product List | Glossary Off
Versions: 1 2 3 4 5 6 7 8 9 10 11 12 13 14 15 16 17 18 19 20 21 22 23 24 25 26 27 28 29 30 31 32 33 34 35 36 37 38 39 40 41 42 43 44 45 46 47 48 49 50

000
ASUS43 KOAX 241402
RWRNE

WEATHER ROUNDUP FOR NEBRASKA
NATIONAL WEATHER SERVICE OMAHA NE
900 AM CDT SUN JUL 24 2016

NOTES: SATELLITE DATA IS BEING USED TO AUGMENT CLOUD COVER ABOVE
       12000 FEET.
       "FAIR" INDICATES FEW OR NO CLOUDS BELOW 12,000 FEET WITH NO
       SIGNIFICANT WEATHER AND/OR OBSTRUCTIONS TO VISIBILITY.

  * THESE STATIONS DO NOT REPORT WEATHER SUCH AS RAIN...SNOW OR FOG.

NEZ001>004-019>022-054>056-241500-
NEBRASKA PANHANDLE

CITY           SKY/WX    TMP DP  RH WIND       PRES   REMARKS
SCOTTSBLUFF    CLOUDY    70  55  59 E10       30.09F
ALLIANCE       PTSUNNY   65  59  81 E12       30.14S
CHADRON        CLOUDY    63  48  58 NE3       30.16R
SIDNEY         CLOUDY    72  55  55 SE9       30.18R
$$

NEZ057>060-069>072-079>082-241500-
SOUTHWEST NEBRASKA

CITY           SKY/WX    TMP DP  RH WIND       PRES   REMARKS
NORTH PLATTE   CLOUDY    70  62  76 CALM      30.09R
IMPERIAL       MOSUNNY   70  59  68 N8        30.12R
LEXINGTON      CLOUDY    71  62  74 CALM      30.06R
MCCOOK         PTSUNNY   73  63  70 NE6       30.07R
OGALLALA       CLOUDY    76  56  49 NE5       30.13R
$$

NEZ005>010-023>029-035>040-094-241500-
NORTH CENTRAL NEBRASKA

CITY           SKY/WX    TMP DP  RH WIND       PRES   REMARKS
VALENTINE      MOSUNNY   73  52  47 NE13      30.08R
AINSWORTH      CLOUDY    67  58  71 NE8       30.07R
BROKEN BOW     CLOUDY    71  63  75 E7        30.05R
O`NEILL        SUNNY     73  61  64 N10       30.06R
ORD            CLOUDY    72  65  78 N7        30.02R
THEDFORD       CLOUDY    73  60  64 NE10      30.10R
$$

NEZ041-046>049-061>064-073>077-083>087-241500-
SOUTH CENTRAL NEBRASKA

CITY           SKY/WX    TMP DP  RH WIND       PRES   REMARKS
GRAND ISLAND   MOSUNNY   75  62  64 NE8       30.02R
AURORA         CLOUDY    76  65  68 E7        30.01R
HASTINGS       MOSUNNY   76  63  64 E10       30.04R
HEBRON         CLOUDY    80  72  76 NE5       29.98R
HOLDREGE       CLOUDY    73  65  75 E9        30.05R
KEARNEY *      CLOUDY    73  63  68 E6        30.05R
$$

NEZ011>018-030>034-042>045-241500-
NORTHEAST NEBRASKA

CITY           SKY/WX    TMP DP  RH WIND       PRES   REMARKS
NORFOLK        MOSUNNY   76  63  64 N3        29.99R
ALBION         PTSUNNY   75  64  67 NE5       30.01R
BLAIR          CLOUDY    79  65  62 NE10      29.94R
FREMONT        MOSUNNY   78  66  66 N5        29.97R
TEKAMAH        MOSUNNY   79  69  71 NW7       29.95R
WAYNE          SUNNY     75  67  76 N5        29.99R
$$

NEZ050>053-065>068-078-088>093-241500-
SOUTHEAST NEBRASKA

CITY           SKY/WX    TMP DP  RH WIND       PRES   REMARKS
LINCOLN        MOSUNNY   81  71  71 NE9       29.97R
OMAHA EPPLEY   CLOUDY    82  69  64 N10       29.92R
BEATRICE       MOSUNNY   84  71  63 E9        29.97R
FALLS CITY     MOSUNNY   83  74  74 NW9       29.91R
NEBRASKA CITY  MOSUNNY   82  78  88 NE6       29.94R HX  90
PLATTSMOUTH    SUNNY     80  74  80 NE7       29.94R
$$

NEZ044-045-051>053-067-241500-
OMAHA AREA

CITY           SKY/WX    TMP DP  RH WIND       PRES   REMARKS
OMAHA EPPLEY   CLOUDY    82  69  64 N10       29.92R
BLAIR          CLOUDY    79  65  62 NE10      29.94R
FREMONT        MOSUNNY   78  66  66 N5        29.97R
MILLARD        MOSUNNY   83  67  58 NE5       29.94R
OFFUTT AFB     MOSUNNY   81  71  70 N7        29.93R
PLATTSMOUTH    SUNNY     80  74  80 NE7       29.94R
WAHOO          FAIR      78  68  71 N3        29.96R
$$




USA.gov is the U.S. government's official web portal to all federal, state and local government web resources and services.